Location: Niedergestelen
(46.3129°N, 7.7822°E)
Time: 06:25:26
(UTC+00:00)

USA 238 DEB - Pass Details

Date: 01 December 2020
Orbit: 997 x 1215 km, 63.4° (Epoch: 11 January)

Event Time Altitude Azimuth Distance (km) Brightness Sun altitude
Rises 17:01:36 0° 181° (S) 3,710 6.8 -12.9°
Reaches altitude 10° 17:04:28 10° 171° (S) 2,779 6.0 -13.4°
Maximum altitude 17:09:59 30° 113° (ESE) 1,757 4.4 -14.3°
Enters shadow 17:13:09 21° 71° (ENE) 2,178 4.7 -14.8°
